RYR9RJ EBCI-LKPR

Flight info

Callsign RYR9RJ
Flight time 1h 9m
Altitude 35000
Route SOPOK Y863 OGLOR DCT EMGOD DCT BOMBI DCT BOREP DCT TONSU Z35 ODOMO DCT LOMKI
Aircraft B738/M-SDE2E3FGHIRWXY/LB1

Departure

Time 2026-05-06 18:17
Airport Brussels South Charleroi Airport (EBCI)

Arrival

Time 2026-05-06 19:27
Airport Václav Havel Airport Prague (LKPR)
Time Latitude Longitude Altitude Speed Heading
2026-05-06 17:41 50.46905 4.47223 612 ft 0 kts 335°
2026-05-06 18:08 50.46894 4.47230 612 ft 4 kts 342°
2026-05-06 18:09 50.46869 4.47237 612 ft 4 kts 13°
2026-05-06 18:09 50.46847 4.47218 612 ft 4 kts 54°
2026-05-06 18:09 50.46834 4.47181 612 ft 4 kts 67°
2026-05-06 18:09 50.46831 4.47170 612 ft 1 kts 65°
2026-05-06 18:13 50.46835 4.47184 612 ft 6 kts 65°
2026-05-06 18:14 50.46870 4.47305 612 ft 18 kts 66°
2026-05-06 18:14 50.46931 4.47517 612 ft 16 kts 64°
2026-05-06 18:14 50.46882 4.47641 612 ft 15 kts 152°
2026-05-06 18:14 50.46822 4.47682 612 ft 0 kts 155°
2026-05-06 18:16 50.46757 4.47728 612 ft 18 kts 156°
2026-05-06 18:16 50.46673 4.47655 612 ft 16 kts 247°
2026-05-06 18:16 50.46614 4.47448 614 ft 42 kts 245°
2026-05-06 18:17 50.46385 4.46678 611 ft 112 kts 246°
2026-05-06 18:17 50.45985 4.45282 673 ft 162 kts 245°
2026-05-06 18:17 50.45507 4.43592 1284 ft 169 kts 246°
2026-05-06 18:17 50.45049 4.41891 2099 ft 171 kts 248°
2026-05-06 18:18 50.44557 4.40109 2585 ft 191 kts 244°
2026-05-06 18:18 50.43949 4.38113 2828 ft 217 kts 244°
2026-05-06 18:18 50.43285 4.35907 3193 ft 229 kts 245°
2026-05-06 18:18 50.42606 4.33617 3720 ft 233 kts 245°
2026-05-06 18:19 50.41925 4.31301 4060 ft 235 kts 245°
2026-05-06 18:19 50.41245 4.28987 4082 ft 234 kts 244°
2026-05-06 18:19 50.40248 4.26992 4187 ft 236 kts 215°
2026-05-06 18:19 50.38725 4.26036 4720 ft 240 kts 186°
2026-05-06 18:20 50.37091 4.26441 5341 ft 242 kts 154°
2026-05-06 18:20 50.35689 4.27937 6017 ft 246 kts 141°
2026-05-06 18:20 50.34391 4.29642 6790 ft 247 kts 140°
2026-05-06 18:20 50.33192 4.31575 7478 ft 251 kts 121°
2026-05-06 18:21 50.32698 4.34205 8001 ft 263 kts 90°
2026-05-06 18:21 50.32976 4.37164 8245 ft 285 kts 77°
2026-05-06 18:21 50.33446 4.40238 8776 ft 294 kts 76°
2026-05-06 18:21 50.33945 4.43365 9444 ft 297 kts 76°
2026-05-06 18:22 50.34165 4.46592 10105 ft 300 kts 94°
2026-05-06 18:22 50.33968 4.49920 10411 ft 317 kts 97°
2026-05-06 18:22 50.33700 4.53456 10566 ft 337 kts 97°
2026-05-06 18:22 50.33415 4.57192 10705 ft 355 kts 97°
2026-05-06 18:23 50.33128 4.61116 10902 ft 369 kts 96°
2026-05-06 18:23 50.32849 4.65136 11315 ft 374 kts 96°
2026-05-06 18:23 50.32578 4.69202 11837 ft 377 kts 96°
2026-05-06 18:23 50.32312 4.73292 12351 ft 379 kts 96°
2026-05-06 18:24 50.32049 4.77407 12830 ft 382 kts 96°
2026-05-06 18:24 50.31783 4.81572 13297 ft 386 kts 96°
2026-05-06 18:24 50.31516 4.85760 13755 ft 389 kts 96°
2026-05-06 18:24 50.31245 4.89986 14209 ft 392 kts 96°
2026-05-06 18:25 50.30972 4.94242 14650 ft 395 kts 96°
2026-05-06 18:25 50.30694 4.98527 15081 ft 398 kts 96°
2026-05-06 18:25 50.30413 5.02849 15499 ft 400 kts 96°
2026-05-06 18:25 50.30128 5.07193 15898 ft 403 kts 96°
2026-05-06 18:26 50.29840 5.11573 16279 ft 406 kts 96°
2026-05-06 18:26 50.29548 5.15978 16644 ft 409 kts 96°
2026-05-06 18:26 50.29251 5.20421 16993 ft 411 kts 96°
2026-05-06 18:26 50.28956 5.24824 17323 ft 414 kts 96°
2026-05-06 18:27 50.28653 5.29309 17643 ft 416 kts 96°
2026-05-06 18:27 50.28347 5.33824 17952 ft 418 kts 96°
2026-05-06 18:27 50.28038 5.38354 18245 ft 420 kts 96°
2026-05-06 18:27 50.27725 5.42915 18527 ft 423 kts 96°
2026-05-06 18:28 50.27409 5.47491 18798 ft 425 kts 96°
2026-05-06 18:28 50.27089 5.52093 19058 ft 427 kts 96°
2026-05-06 18:28 50.26766 5.56717 19307 ft 429 kts 96°
2026-05-06 18:28 50.26440 5.61359 19546 ft 430 kts 96°
2026-05-06 18:29 50.26112 5.66017 19774 ft 432 kts 96°
2026-05-06 18:29 50.25780 5.70699 19995 ft 434 kts 96°
2026-05-06 18:29 50.25445 5.75388 20204 ft 435 kts 97°
2026-05-06 18:29 50.24970 5.80068 20393 ft 437 kts 103°
2026-05-06 18:30 50.24213 5.84671 20591 ft 438 kts 105°
2026-05-06 18:30 50.23388 5.89259 20778 ft 440 kts 106°
2026-05-06 18:30 50.22557 5.93866 20953 ft 441 kts 106°
2026-05-06 18:30 50.21825 5.98515 21112 ft 443 kts 99°
2026-05-06 18:31 50.21512 6.03306 21279 ft 444 kts 94°
2026-05-06 18:31 50.21315 6.08120 21445 ft 445 kts 94°
2026-05-06 18:31 50.21138 6.12959 21591 ft 447 kts 94°
2026-05-06 18:31 50.20954 6.17820 21731 ft 448 kts 94°
2026-05-06 18:32 50.20756 6.22683 21872 ft 449 kts 94°
2026-05-06 18:32 50.20542 6.27558 22010 ft 450 kts 94°
2026-05-06 18:32 50.20320 6.32375 22151 ft 451 kts 94°
2026-05-06 18:32 50.20086 6.37261 22299 ft 451 kts 95°
2026-05-06 18:33 50.19848 6.42147 22429 ft 452 kts 95°
2026-05-06 18:33 50.19605 6.47040 22630 ft 450 kts 95°
2026-05-06 18:33 50.19364 6.51863 23148 ft 441 kts 95°
2026-05-06 18:33 50.19127 6.56587 23630 ft 433 kts 95°
2026-05-06 18:34 50.18890 6.61250 23914 ft 432 kts 95°
2026-05-06 18:34 50.18650 6.65956 24040 ft 434 kts 95°
2026-05-06 18:34 50.18409 6.70641 24298 ft 433 kts 95°
2026-05-06 18:34 50.18169 6.75275 24493 ft 433 kts 95°
2026-05-06 18:35 50.17923 6.79983 24505 ft 438 kts 95°
2026-05-06 18:35 50.17669 6.84807 24569 ft 441 kts 95°
2026-05-06 18:35 50.17421 6.89480 24953 ft 435 kts 95°
2026-05-06 18:35 50.17168 6.94223 25311 ft 431 kts 95°
2026-05-06 18:36 50.16919 6.98847 25339 ft 436 kts 95°
2026-05-06 18:36 50.16663 7.03576 25374 ft 440 kts 95°
2026-05-06 18:36 50.16402 7.08352 25399 ft 444 kts 95°
2026-05-06 18:36 50.16136 7.13168 25423 ft 447 kts 95°
2026-05-06 18:37 50.15867 7.18010 25444 ft 450 kts 95°
2026-05-06 18:37 50.15684 7.21295 25455 ft 452 kts 95°
2026-05-06 18:37 50.15318 7.27802 25501 ft 454 kts 95°
2026-05-06 18:37 50.15042 7.32662 25890 ft 447 kts 95°
2026-05-06 18:38 50.14767 7.37470 26239 ft 442 kts 95°
2026-05-06 18:38 50.14492 7.42254 26283 ft 445 kts 95°
2026-05-06 18:38 50.14213 7.47064 26311 ft 448 kts 95°
2026-05-06 18:38 50.13929 7.51910 26334 ft 450 kts 95°
2026-05-06 18:39 50.13651 7.56791 26354 ft 453 kts 94°
2026-05-06 18:39 50.13460 7.61673 26584 ft 449 kts 93°
2026-05-06 18:39 50.13325 7.66498 26956 ft 443 kts 92°
2026-05-06 18:40 50.13084 7.76034 27531 ft 435 kts 92°
2026-05-06 18:40 50.12956 7.80709 27933 ft 428 kts 93°
2026-05-06 18:40 50.12820 7.85342 28070 ft 430 kts 93°
2026-05-06 18:40 50.12676 7.89981 28375 ft 425 kts 93°
2026-05-06 18:41 50.12528 7.94559 28685 ft 422 kts 93°
2026-05-06 18:41 50.12376 7.99121 28808 ft 424 kts 93°
2026-05-06 18:41 50.12221 8.03719 28832 ft 428 kts 93°
2026-05-06 18:42 50.11900 8.13045 28895 ft 434 kts 93°
2026-05-06 18:42 50.11736 8.17735 29152 ft 431 kts 93°
2026-05-06 18:42 50.11572 8.22363 29414 ft 427 kts 93°
2026-05-06 18:43 50.11238 8.31665 29521 ft 433 kts 93°
2026-05-06 18:43 50.10892 8.41091 29572 ft 439 kts 94°
2026-05-06 18:44 50.10538 8.50515 29874 ft 436 kts 94°
2026-05-06 18:44 50.10358 8.55215 30103 ft 433 kts 94°
2026-05-06 18:44 50.10177 8.59919 30190 ft 434 kts 94°
2026-05-06 18:44 50.09995 8.64582 30517 ft 428 kts 94°
2026-05-06 18:45 50.09814 8.69182 30787 ft 425 kts 94°
2026-05-06 18:45 50.09634 8.73725 31248 ft 415 kts 94°
2026-05-06 18:45 50.09455 8.78168 31717 ft 406 kts 94°
2026-05-06 18:45 50.09336 8.81126 31832 ft 407 kts 94°
2026-05-06 18:46 50.09158 8.85473 32036 ft 404 kts 94°
2026-05-06 18:46 50.08979 8.89826 32268 ft 402 kts 94°
2026-05-06 18:46 50.08798 8.94164 32373 ft 403 kts 94°
2026-05-06 18:47 50.08429 9.02921 32515 ft 407 kts 94°
2026-05-06 18:47 50.08050 9.11776 32559 ft 413 kts 94°
2026-05-06 18:48 50.07658 9.20745 32689 ft 415 kts 94°
2026-05-06 18:48 50.07461 9.25198 32981 ft 410 kts 94°
2026-05-06 18:48 50.07264 9.29611 33193 ft 408 kts 94°
2026-05-06 18:49 50.06863 9.38486 33215 ft 414 kts 94°
2026-05-06 18:49 50.06659 9.42955 33373 ft 412 kts 94°
2026-05-06 18:49 50.06454 9.47381 33571 ft 409 kts 94°
2026-05-06 18:50 50.06041 9.56233 33674 ft 412 kts 94°
2026-05-06 18:50 50.05615 9.65180 33716 ft 417 kts 94°
2026-05-06 18:51 50.05179 9.74211 33753 ft 421 kts 95°
2026-05-06 18:51 50.04735 9.83265 33785 ft 424 kts 95°
2026-05-06 18:52 50.04274 9.92516 33813 ft 428 kts 95°
2026-05-06 18:52 50.03805 10.01771 33851 ft 430 kts 95°
2026-05-06 18:52 50.03570 10.06347 33964 ft 429 kts 95°
2026-05-06 18:53 50.03331 10.10974 33994 ft 429 kts 95°
2026-05-06 18:53 50.02846 10.20255 34005 ft 432 kts 95°
2026-05-06 18:54 50.02350 10.29601 34006 ft 434 kts 95°
2026-05-06 18:54 50.01853 10.38975 34006 ft 436 kts 95°
2026-05-06 18:55 50.01338 10.48399 34002 ft 438 kts 95°
2026-05-06 18:55 50.00805 10.57861 34003 ft 440 kts 95°
2026-05-06 18:56 50.00267 10.67362 34002 ft 442 kts 95°
2026-05-06 18:56 49.99723 10.76885 34002 ft 443 kts 95°
2026-05-06 18:57 49.99238 10.86447 34001 ft 444 kts 93°
2026-05-06 18:57 49.99088 10.91243 33879 ft 445 kts 92°
2026-05-06 18:57 49.98956 10.96060 33175 ft 448 kts 92°
2026-05-06 18:57 49.98823 11.00947 32113 ft 458 kts 92°
2026-05-06 18:58 49.98677 11.05969 30783 ft 473 kts 93°
2026-05-06 18:58 49.98516 11.11137 30119 ft 473 kts 93°
2026-05-06 18:58 49.98353 11.16103 30344 ft 453 kts 93°
2026-05-06 18:58 49.98185 11.21019 30088 ft 460 kts 93°
2026-05-06 18:59 49.98010 11.26029 29774 ft 468 kts 93°
2026-05-06 18:59 49.97829 11.31132 29455 ft 476 kts 93°
2026-05-06 18:59 49.97644 11.36299 29137 ft 482 kts 93°
2026-05-06 18:59 49.97454 11.41517 28818 ft 487 kts 93°
2026-05-06 19:00 49.97261 11.46782 28488 ft 486 kts 94°
2026-05-06 19:00 49.97068 11.51992 28155 ft 481 kts 94°
2026-05-06 19:00 49.96874 11.57161 27827 ft 477 kts 94°
2026-05-06 19:00 49.96682 11.62224 27504 ft 474 kts 94°
2026-05-06 19:01 49.96486 11.67317 27181 ft 472 kts 94°
2026-05-06 19:01 49.96289 11.72392 26851 ft 466 kts 94°
2026-05-06 19:01 49.96094 11.77356 26514 ft 455 kts 94°
2026-05-06 19:01 49.95902 11.82193 26181 ft 444 kts 94°
2026-05-06 19:02 49.95711 11.86949 25855 ft 439 kts 94°
2026-05-06 19:02 49.95519 11.91683 25534 ft 438 kts 94°
2026-05-06 19:02 49.95326 11.96387 25212 ft 436 kts 94°
2026-05-06 19:02 49.95131 12.01084 25038 ft 435 kts 94°
2026-05-06 19:03 49.94934 12.05805 25011 ft 440 kts 94°
2026-05-06 19:03 49.94734 12.10542 25003 ft 440 kts 94°
2026-05-06 19:03 49.94533 12.15273 24994 ft 438 kts 94°
2026-05-06 19:03 49.94330 12.19993 24996 ft 438 kts 94°
2026-05-06 19:04 49.94127 12.24704 24510 ft 436 kts 94°
2026-05-06 19:04 49.93924 12.29353 24048 ft 430 kts 94°
2026-05-06 19:04 49.93720 12.33975 23498 ft 427 kts 94°
2026-05-06 19:04 49.93545 12.38564 22817 ft 427 kts 93°
2026-05-06 19:05 49.93414 12.43144 22253 ft 424 kts 92°
2026-05-06 19:05 49.93298 12.47702 21716 ft 420 kts 92°
2026-05-06 19:05 49.93184 12.52208 21193 ft 416 kts 92°
2026-05-06 19:05 49.93066 12.56669 20678 ft 412 kts 92°
2026-05-06 19:06 49.92944 12.61100 20167 ft 408 kts 92°
2026-05-06 19:06 49.92818 12.65480 19661 ft 405 kts 93°
2026-05-06 19:06 49.92689 12.69827 19160 ft 401 kts 93°
2026-05-06 19:06 49.92559 12.74127 18664 ft 398 kts 93°
2026-05-06 19:07 49.92429 12.78389 18172 ft 394 kts 93°
2026-05-06 19:07 49.92298 12.82623 17681 ft 391 kts 93°
2026-05-06 19:07 49.92166 12.86832 17206 ft 388 kts 93°
2026-05-06 19:07 49.92035 12.90974 17044 ft 380 kts 93°
2026-05-06 19:08 49.91907 12.94975 16922 ft 372 kts 93°
2026-05-06 19:08 49.91776 12.99021 16509 ft 370 kts 93°
2026-05-06 19:08 49.91646 13.03001 15652 ft 379 kts 93°
2026-05-06 19:08 49.91508 13.07161 14917 ft 383 kts 93°
2026-05-06 19:09 49.91372 13.11229 14381 ft 381 kts 93°
2026-05-06 19:09 49.91236 13.15314 13890 ft 377 kts 93°
2026-05-06 19:09 49.91098 13.19357 13407 ft 374 kts 93°
2026-05-06 19:09 49.90960 13.23367 13070 ft 369 kts 93°
2026-05-06 19:10 49.90820 13.27363 13028 ft 369 kts 93°
2026-05-06 19:10 49.90681 13.31272 12996 ft 356 kts 93°
2026-05-06 19:10 49.90546 13.35025 12982 ft 340 kts 94°
2026-05-06 19:10 49.90415 13.38639 12982 ft 325 kts 94°
2026-05-06 19:11 49.90291 13.42061 12979 ft 312 kts 94°
2026-05-06 19:11 49.90143 13.45338 12980 ft 298 kts 100°
2026-05-06 19:11 49.89748 13.48416 12985 ft 284 kts 93°
2026-05-06 19:11 49.90068 13.51346 12996 ft 271 kts 65°
2026-05-06 19:12 49.91122 13.53666 13006 ft 260 kts 47°
2026-05-06 19:12 49.92365 13.55675 12995 ft 257 kts 45°
2026-05-06 19:12 49.93620 13.57635 12980 ft 264 kts 45°
2026-05-06 19:12 49.94946 13.59694 12715 ft 273 kts 45°
2026-05-06 19:13 49.96294 13.61782 12475 ft 274 kts 45°
2026-05-06 19:13 49.97640 13.63864 12221 ft 272 kts 45°
2026-05-06 19:13 49.98978 13.65934 11969 ft 271 kts 45°
2026-05-06 19:13 50.00311 13.67996 11718 ft 269 kts 45°
2026-05-06 19:14 50.01634 13.70031 11465 ft 267 kts 42°
2026-05-06 19:14 50.03093 13.71815 11214 ft 266 kts 36°
2026-05-06 19:14 50.04592 13.73479 10964 ft 264 kts 35°
2026-05-06 19:14 50.06098 13.75132 10712 ft 263 kts 35°
2026-05-06 19:15 50.07594 13.76768 10460 ft 262 kts 35°
2026-05-06 19:15 50.09080 13.78393 10211 ft 260 kts 36°
2026-05-06 19:15 50.10503 13.80127 9959 ft 259 kts 39°
2026-05-06 19:15 50.11890 13.81914 9710 ft 258 kts 39°
2026-05-06 19:16 50.13266 13.83702 9459 ft 257 kts 40°
2026-05-06 19:16 50.14748 13.85217 9182 ft 256 kts 18°
2026-05-06 19:16 50.16472 13.85564 8955 ft 252 kts 358°
2026-05-06 19:16 50.18241 13.85413 8707 ft 251 kts 355°
2026-05-06 19:17 50.19961 13.85215 8459 ft 250 kts 355°
2026-05-06 19:17 50.21695 13.85007 8209 ft 250 kts 355°
2026-05-06 19:17 50.23423 13.84795 7959 ft 249 kts 355°
2026-05-06 19:17 50.25146 13.84582 7709 ft 248 kts 355°
2026-05-06 19:18 50.26864 13.84368 7460 ft 247 kts 355°
2026-05-06 19:18 50.28578 13.84155 7209 ft 247 kts 355°
2026-05-06 19:18 50.30289 13.83943 6959 ft 246 kts 355°
2026-05-06 19:18 50.31990 13.83731 6710 ft 245 kts 355°
2026-05-06 19:19 50.33682 13.83533 6561 ft 239 kts 359°
2026-05-06 19:19 50.35261 13.84063 6586 ft 231 kts 30°
2026-05-06 19:19 50.36388 13.85806 6609 ft 233 kts 63°
2026-05-06 19:19 50.36741 13.88277 6732 ft 236 kts 96°
2026-05-06 19:20 50.36198 13.90687 6917 ft 239 kts 128°
2026-05-06 19:20 50.34948 13.92357 6999 ft 238 kts 152°
2026-05-06 19:20 50.33469 13.93555 7000 ft 239 kts 154°
2026-05-06 19:20 50.31973 13.94697 6953 ft 240 kts 155°
2026-05-06 19:21 50.30451 13.95847 6695 ft 246 kts 155°
2026-05-06 19:21 50.28900 13.97014 6349 ft 248 kts 155°
2026-05-06 19:21 50.27353 13.98174 6023 ft 244 kts 155°
2026-05-06 19:21 50.25862 13.99291 5656 ft 237 kts 155°
2026-05-06 19:22 50.24380 14.00402 5288 ft 230 kts 155°
2026-05-06 19:22 50.22974 14.01456 4931 ft 224 kts 155°
2026-05-06 19:22 50.21598 14.02522 4605 ft 217 kts 148°
2026-05-06 19:22 50.20617 14.04187 4365 ft 205 kts 120°
2026-05-06 19:23 50.19851 14.05992 4096 ft 195 kts 129°
2026-05-06 19:23 50.19026 14.07611 3830 ft 186 kts 129°
2026-05-06 19:23 50.18246 14.09185 3599 ft 183 kts 128°
2026-05-06 19:23 50.17474 14.10767 3352 ft 182 kts 128°
2026-05-06 19:24 50.16715 14.12332 3113 ft 180 kts 128°
2026-05-06 19:24 50.15965 14.13880 2880 ft 177 kts 128°
2026-05-06 19:24 50.15222 14.15411 2646 ft 178 kts 128°
2026-05-06 19:24 50.14471 14.16961 2411 ft 178 kts 128°
2026-05-06 19:25 50.13745 14.18459 2164 ft 169 kts 128°
2026-05-06 19:25 50.13049 14.19895 1954 ft 165 kts 128°
2026-05-06 19:25 50.12363 14.21312 1734 ft 161 kts 128°
2026-05-06 19:25 50.11698 14.22685 1517 ft 157 kts 128°
2026-05-06 19:26 50.11044 14.24036 1275 ft 158 kts 128°
2026-05-06 19:26 50.10398 14.25355 1178 ft 139 kts 126°
2026-05-06 19:26 50.09925 14.26363 1203 ft 92 kts 128°
2026-05-06 19:26 50.09599 14.27030 1213 ft 70 kts 127°
2026-05-06 19:27 50.09443 14.27436 1217 ft 20 kts 64°
2026-05-06 19:27 50.09460 14.27471 1216 ft 0 kts 44°
2026-05-06 19:27 50.09462 14.27473 1216 ft 2 kts 44°
2026-05-06 19:27 50.09524 14.27555 1212 ft 19 kts 36°
2026-05-06 19:28 50.09565 14.27602 1209 ft 0 kts 36°
2026-05-06 19:28 50.09570 14.27608 1209 ft 2 kts 36°
2026-05-06 19:28 50.09575 14.27614 1209 ft 0 kts 36°
2026-05-06 19:28 50.09576 14.27615 1209 ft 0 kts 36°
2026-05-06 19:29 50.09580 14.27619 1209 ft 2 kts 36°
2026-05-06 19:29 50.09582 14.27622 1209 ft 0 kts 36°
2026-05-06 19:30 50.09583 14.27623 1209 ft 1 kts 39°
2026-05-06 19:30 50.09636 14.27642 1207 ft 10 kts 329°
2026-05-06 19:31 50.09688 14.27561 1206 ft 11 kts 317°
2026-05-06 19:31 50.09747 14.27476 1205 ft 13 kts 317°
2026-05-06 19:31 50.09978 14.27055 1204 ft 37 kts 306°
2026-05-06 19:32 50.10130 14.26735 1197 ft 37 kts 307°
2026-05-06 19:32 50.10288 14.26416 1192 ft 36 kts 307°
2026-05-06 19:32 50.10425 14.26126 1186 ft 21 kts 304°
2026-05-06 19:32 50.10512 14.25947 1182 ft 20 kts 307°
2026-05-06 19:33 50.10601 14.25799 1181 ft 17 kts
2026-05-06 19:33 50.10706 14.25897 1176 ft 18 kts 36°
2026-05-06 19:33 50.10768 14.25942 1176 ft 2 kts 327°
2026-05-06 19:33 50.10781 14.25924 1176 ft 3 kts 314°
2026-05-06 19:34 50.10791 14.25903 1176 ft 2 kts 304°
2026-05-06 19:34 50.10804 14.25874 1175 ft 0 kts 305°